Location: Czekanka
(50.4925°N, 19.2643°E)
Time: 02:13:32
(UTC+00:00)

ADEOS II - Pass Details

Date: 18 September 2024
Orbit: 795 x 798 km, 98.7° (Epoch: 14 October)

Event Time Altitude Azimuth Distance (km) Brightness Sun altitude
Rises 00:13:16 0° 23° (NNE) 3,311 6.3 -33.9°
Reaches altitude 10° 00:15:59 10° 36° (NE) 2,376 5.4 -33.6°
Enters shadow 00:20:10 26° 89° (E) 1,516 3.7 -33.3°
